When you browse on this site, cookies collect data to enhance your experience and personalize the content and advertising you see.
Visit our Privacy Policy to learn more. By continuing to use the site, you agree to this use of cookies and data.
  • Em Portugal
  • Lista de países
  • Para 7 dias
  • Temperatura da água
  • Mapas de satélite
  • Mapa do tempo
  • Widgets de tempo
  • user-avatar
    Iniciar Sessão

    Previsão horária em Moiseevka

    Hoje, 17 Julho, Quarta-feira

    Tempo Temperatura Precipitação Vento Pressão Humidade
    00:00 +17°C° 0 mm 2 m/s 752 mmHg 78%
    01:00 +17°C° 0 mm 2 m/s 751 mmHg 79%
    02:00 +17°C° 0 mm 2 m/s 751 mmHg 80%
    03:00 +17°C° 0 mm 3 m/s 751 mmHg 81%
    04:00 +17°C° 0 mm 2 m/s 751 mmHg 82%
    05:00 +17°C° 0 mm 2 m/s 751 mmHg 83%
    06:00 +18°C° 0 mm 2 m/s 751 mmHg 84%
    07:00 +18°C° 0 mm 2 m/s 751 mmHg 85%
    08:00 +18°C° 0 mm 3 m/s 751 mmHg 85%
    09:00 +19°C° 0 mm 3 m/s 750 mmHg 86%
    10:00 +19°C° 0 mm 3 m/s 750 mmHg 84%
    11:00 +20°C° 0 mm 3 m/s 750 mmHg 82%
    12:00 +21°C° 0 mm 4 m/s 750 mmHg 80%
    13:00 +21°C° 0.1 mm 4 m/s 750 mmHg 80%
    14:00 +22°C° 0.1 mm 4 m/s 750 mmHg 79%
    15:00 +22°C° 0.1 mm 4 m/s 749 mmHg 78%
    16:00 +22°C° 0.5 mm 4 m/s 749 mmHg 80%
    17:00 +22°C° 0.5 mm 4 m/s 749 mmHg 81%
    18:00 +22°C° 0.5 mm 5 m/s 748 mmHg 82%
    19:00 +22°C° 0 mm 5 m/s 748 mmHg 84%
    20:00 +21°C° 0 mm 5 m/s 748 mmHg 85%
    21:00 +20°C° 0 mm 5 m/s 747 mmHg 86%
    22:00 +20°C° 0.4 mm 5 m/s 747 mmHg 87%
    23:00 +19°C° 0.4 mm 5 m/s 747 mmHg 88%

    Amanhã, 18 Julho, Quinta-feira

    Tempo Temperatura Precipitação Vento Pressão Humidade
    00:00 +19°C° 0.4 mm 5 m/s 747 mmHg 89%
    01:00 +19°C° 0.5 mm 5 m/s 746 mmHg 90%
    02:00 +18°C° 0.5 mm 4 m/s 746 mmHg 91%
    03:00 +18°C° 0.5 mm 4 m/s 746 mmHg 93%
    04:00 +18°C° 0.1 mm 4 m/s 746 mmHg 91%
    05:00 +19°C° 0.1 mm 4 m/s 746 mmHg 89%
    06:00 +19°C° 0.1 mm 5 m/s 746 mmHg 88%
    07:00 +21°C° 0 mm 4 m/s 746 mmHg 83%
    08:00 +22°C° 0 mm 4 m/s 746 mmHg 78%
    09:00 +25°C° 0 mm 3 m/s 746 mmHg 74%
    10:00 +26°C° 0 mm 3 m/s 746 mmHg 69%
    11:00 +27°C° 0 mm 3 m/s 746 mmHg 65%
    12:00 +28°C° 0 mm 2 m/s 746 mmHg 60%
    13:00 +29°C° 0 mm 2 m/s 746 mmHg 60%
    14:00 +29°C° 0 mm 2 m/s 746 mmHg 59%
    15:00 +29°C° 0 mm 2 m/s 746 mmHg 58%
    16:00 +28°C° 0 mm 2 m/s 746 mmHg 64%
    17:00 +28°C° 0 mm 2 m/s 746 mmHg 70%
    18:00 +27°C° 0 mm 2 m/s 746 mmHg 75%
    19:00 +25°C° 0 mm 2 m/s 746 mmHg 81%
    20:00 +23°C° 0 mm 2 m/s 746 mmHg 86%
    21:00 +21°C° 0 mm 2 m/s 747 mmHg 92%
    22:00 +20°C° 0 mm 2 m/s 747 mmHg 93%
    23:00 +19°C° 0 mm 2 m/s 747 mmHg 93%

    Depois de amanhã, 19 Julho, Sexta-feira

    Tempo Temperatura Precipitação Vento Pressão Humidade
    00:00 +19°C° 0 mm 2 m/s 747 mmHg 94%
    01:00 +19°C° 0 mm 2 m/s 747 mmHg 94%
    02:00 +18°C° 0 mm 2 m/s 748 mmHg 95%
    03:00 +18°C° 0 mm 2 m/s 748 mmHg 96%
    04:00 +19°C° 0 mm 2 m/s 748 mmHg 93%
    05:00 +20°C° 0 mm 2 m/s 748 mmHg 91%
    06:00 +21°C° 0 mm 1 m/s 748 mmHg 89%
    07:00 +23°C° 0 mm 2 m/s 749 mmHg 83%
    08:00 +24°C° 0 mm 2 m/s 749 mmHg 76%
    09:00 +25°C° 0 mm 2 m/s 749 mmHg 69%
    10:00 +26°C° 0 mm 2 m/s 749 mmHg 66%
    11:00 +27°C° 0 mm 2 m/s 749 mmHg 62%
    12:00 +28°C° 0 mm 2 m/s 749 mmHg 58%
    13:00 +28°C° 0.1 mm 3 m/s 749 mmHg 59%
    14:00 +28°C° 0.1 mm 3 m/s 749 mmHg 59%
    15:00 +28°C° 0.1 mm 3 m/s 749 mmHg 60%
    16:00 +27°C° 0.1 mm 2 m/s 749 mmHg 65%
    17:00 +26°C° 0.1 mm 2 m/s 749 mmHg 70%
    18:00 +25°C° 0.1 mm 1 m/s 749 mmHg 75%
    19:00 +24°C° 0 mm 1 m/s 750 mmHg 77%
    20:00 +22°C° 0 mm 1 m/s 750 mmHg 80%
    21:00 +21°C° 0 mm 1 m/s 750 mmHg 82%
    22:00 +21°C° 0 mm 1 m/s 750 mmHg 84%
    23:00 +20°C° 0 mm 1 m/s 750 mmHg 85%

    20 Julho, Sábado

    Tempo Temperatura Precipitação Vento Pressão Humidade
    00:00 +19°C° 0 mm 1 m/s 750 mmHg 87%
    01:00 +19°C° 0 mm 1 m/s 750 mmHg 88%
    02:00 +18°C° 0 mm 1 m/s 750 mmHg 89%
    03:00 +18°C° 0 mm 1 m/s 750 mmHg 90%
    04:00 +19°C° 0 mm 1 m/s 750 mmHg 88%
    05:00 +20°C° 0 mm 1 m/s 751 mmHg 86%
    06:00 +21°C° 0 mm 1 m/s 751 mmHg 83%
    07:00 +22°C° 0 mm 1 m/s 751 mmHg 77%
    08:00 +24°C° 0 mm 1 m/s 751 mmHg 71%
    09:00 +25°C° 0 mm 2 m/s 751 mmHg 65%
    10:00 +26°C° 0 mm 2 m/s 751 mmHg 61%
    11:00 +26°C° 0 mm 3 m/s 751 mmHg 58%
    12:00 +27°C° 0 mm 3 m/s 751 mmHg 55%
    13:00 +27°C° 0 mm 4 m/s 751 mmHg 55%
    14:00 +27°C° 0 mm 4 m/s 751 mmHg 56%
    15:00 +27°C° 0 mm 4 m/s 750 mmHg 56%
    16:00 +26°C° 0.3 mm 3 m/s 751 mmHg 63%
    17:00 +25°C° 0.3 mm 3 m/s 751 mmHg 70%
    18:00 +24°C° 0.3 mm 3 m/s 751 mmHg 77%
    19:00 +22°C° 0 mm 3 m/s 751 mmHg 82%
    20:00 +20°C° 0 mm 3 m/s 751 mmHg 86%
    21:00 +18°C° 0 mm 3 m/s 751 mmHg 90%
    22:00 +18°C° 0 mm 3 m/s 751 mmHg 91%
    23:00 +17°C° 0 mm 3 m/s 752 mmHg 92%

    21 Julho, Domingo

    Tempo Temperatura Precipitação Vento Pressão Humidade
    00:00 +17°C° 0 mm 2 m/s 752 mmHg 93%
    01:00 +16°C° 0 mm 2 m/s 752 mmHg 93%
    02:00 +16°C° 0 mm 2 m/s 752 mmHg 94%
    03:00 +16°C° 0 mm 2 m/s 752 mmHg 94%
    04:00 +16°C° 0 mm 3 m/s 752 mmHg 91%
    05:00 +17°C° 0 mm 3 m/s 752 mmHg 89%
    06:00 +18°C° 0 mm 3 m/s 752 mmHg 86%
    07:00 +19°C° 0 mm 4 m/s 752 mmHg 80%
    08:00 +21°C° 0 mm 4 m/s 752 mmHg 75%
    09:00 +22°C° 0 mm 4 m/s 752 mmHg 69%
    10:00 +23°C° 0 mm 5 m/s 752 mmHg 66%
    11:00 +23°C° 0 mm 5 m/s 752 mmHg 63%
    12:00 +25°C° 0 mm 5 m/s 752 mmHg 61%
    13:00 +25°C° 0 mm 5 m/s 752 mmHg 60%
    14:00 +26°C° 0 mm 5 m/s 751 mmHg 60%
    15:00 +26°C° 0 mm 5 m/s 751 mmHg 59%
    16:00 +25°C° 0.2 mm 4 m/s 751 mmHg 65%
    17:00 +23°C° 0.2 mm 4 m/s 751 mmHg 71%
    18:00 +22°C° 0.2 mm 3 m/s 751 mmHg 77%
    19:00 +21°C° 0 mm 3 m/s 751 mmHg 81%
    20:00 +20°C° 0 mm 3 m/s 751 mmHg 85%
    21:00 +18°C° 0 mm 3 m/s 751 mmHg 90%
    22:00 +18°C° 0 mm 3 m/s 751 mmHg 91%
    23:00 +17°C° 0 mm 3 m/s 751 mmHg 92%

    22 Julho, Segunda-feira

    Tempo Temperatura Precipitação Vento Pressão Humidade
    00:00 +17°C° 0 mm 3 m/s 750 mmHg 94%
    01:00 +17°C° 0 mm 3 m/s 750 mmHg 94%
    02:00 +16°C° 0 mm 3 m/s 750 mmHg 95%
    03:00 +16°C° 0 mm 3 m/s 750 mmHg 95%
    04:00 +17°C° 0 mm 3 m/s 750 mmHg 93%
    05:00 +17°C° 0 mm 3 m/s 750 mmHg 91%
    06:00 +18°C° 0 mm 3 m/s 750 mmHg 89%
    07:00 +19°C° 0.2 mm 4 m/s 750 mmHg 84%
    08:00 +20°C° 0.2 mm 4 m/s 750 mmHg 80%
    09:00 +22°C° 0.2 mm 5 m/s 749 mmHg 75%
    10:00 +22°C° 0.5 mm 5 m/s 749 mmHg 73%
    11:00 +22°C° 0.5 mm 5 m/s 749 mmHg 72%
    12:00 +23°C° 0.5 mm 6 m/s 749 mmHg 71%
    13:00 +22°C° 1 mm 5 m/s 749 mmHg 73%
    14:00 +22°C° 1 mm 5 m/s 749 mmHg 74%
    15:00 +22°C° 1 mm 5 m/s 749 mmHg 76%
    16:00 +21°C° 0.3 mm 5 m/s 749 mmHg 78%
    17:00 +20°C° 0.3 mm 4 m/s 749 mmHg 79%
    18:00 +19°C° 0.3 mm 4 m/s 749 mmHg 81%
    19:00 +18°C° 0 mm 3 m/s 749 mmHg 82%
    20:00 +17°C° 0 mm 3 m/s 749 mmHg 84%
    21:00 +15°C° 0 mm 2 m/s 749 mmHg 86%
    22:00 +14°C° 0 mm 3 m/s 749 mmHg 87%
    23:00 +13°C° 0 mm 3 m/s 749 mmHg 89%
    Mostrar mais